Weather History for Robinson, IL

Change the Weather History Date:

Monday, April 29, 2013

  Actual Average (KLWV) Record (KLWV)
Temperature  
Mean Temperature 64 °F 61 °F  
Max Temperature 73 °F 71 °F 82 °F (2007)
Min Temperature 55 °F 50 °F 33 °F (1992)
Degree Days  
Heating Degree Days 1 5  
Month to date heating degree days 290  
Since 1 July heating degree days 4587  
Cooling Degree Days 0 1  
Month to date cooling degree days 23  
Year to date cooling degree days 25  
Growing Degree Days 14 (Base 50)    
Moisture  
Dew Point 53 °F    
Average Humidity 70    
Maximum Humidity 89    
Minimum Humidity 47    
Precipitation  
Precipitation 0.00 in 0.22 in 2.25 in (1989)
Month to date precipitation 3.94  
Year to date precipitation 11.76  
Sea Level Pressure  
Sea Level Pressure 29.95 in    
Wind  
Wind Speed 6 mph (SSE)    
Max Wind Speed 14 mph    
Max Gust Speed 20 mph    
Visibility 9 miles    
Events      
T = Trace of Precipitation, MM = Missing Value Source: NWS Daily Summary

Daily Weather History Graph

Daily Weather History Graph

Search for Another Location

Airport:

Trip Planner

Search our weather history database for the weather conditions in past years. The results will help you decide how hot, cold, wet, or windy it might be!

Date:

Astronomy

Apr. 29, 2013 Rise Set
Actual Time 5:54 AM CDT 7:41 PM CDT
Civil Twilight 5:26 AM CDT 8:10 PM CDT
Nautical Twilight 4:51 AM CDT 8:45 PM CDT
Astronomical Twilight 4:14 AM CDT 9:22 PM CDT
Moon No Moon Rise 9:15 AM CDT (4/29)
Length of Visible Light 14h 44m
Length of Day
13h 47m
Waning Gibbous, 80% of the Moon is Illuminated
Apr 29
Waning Gibbous
May 2
Last Quarter
May 9
New
May 17
First Quarter
May 24
Full

Hourly Weather History & Observations

Time (CDT) Temp. Dew Point Humidity Pressure Visibility Wind Dir Wind Speed Gust Speed Precip Events Conditions
12:15 AM 57.6 °F 53.6 °F 87% 29.95 in 7.0 mi SSW 9.2 mph - N/A   Overcast
12:35 AM 57.2 °F 53.2 °F 87% 29.96 in 7.0 mi SSW 6.9 mph - N/A   Overcast
12:55 AM 57.2 °F 52.9 °F 85% 29.96 in 10.0 mi SW 9.2 mph - N/A   Overcast
1:15 AM 57.2 °F 52.0 °F 83% 29.96 in 10.0 mi SW 5.8 mph - N/A   Overcast
1:35 AM 56.7 °F 52.0 °F 84% 29.95 in 10.0 mi Calm Calm - N/A   Overcast
1:55 AM 56.5 °F 52.0 °F 85% 29.95 in 10.0 mi Calm Calm - N/A   Overcast
2:15 AM 56.5 °F 51.8 °F 84% 29.94 in 10.0 mi Calm Calm - N/A   Overcast
2:35 AM 56.5 °F 51.4 °F 83% 29.94 in 10.0 mi WSW 4.6 mph - N/A   Overcast
2:55 AM 56.1 °F 51.8 °F 85% 29.94 in 10.0 mi Calm Calm - N/A   Overcast
3:15 AM 55.8 °F 52.0 °F 87% 29.94 in 10.0 mi Calm Calm - N/A   Overcast
3:35 AM 55.8 °F 51.8 °F 87% 29.95 in 10.0 mi Calm Calm - N/A   Overcast
3:55 AM 55.9 °F 51.8 °F 86% 29.96 in 10.0 mi Calm Calm - N/A   Overcast
4:15 AM 55.6 °F 51.8 °F 87% 29.96 in 10.0 mi Calm Calm - N/A   Overcast
4:35 AM 55.4 °F 51.8 °F 88% 29.96 in 10.0 mi Calm Calm - N/A   Overcast
4:55 AM 55.4 °F 51.8 °F 88% 29.97 in 10.0 mi Calm Calm - N/A   Overcast
5:15 AM 55.4 °F 51.8 °F 88% 29.97 in 7.0 mi South 3.5 mph - N/A   Overcast
5:35 AM 55.4 °F 51.6 °F 87% 29.97 in 10.0 mi Calm Calm - N/A   Overcast
5:55 AM 55.2 °F 51.6 °F 88% 29.98 in 7.0 mi Calm Calm - N/A   Overcast
6:15 AM 55.0 °F 51.8 °F 89% 29.98 in 5.0 mi Calm Calm - N/A   Overcast
6:35 AM 55.4 °F 51.8 °F 88% 29.99 in 5.0 mi SE 3.5 mph - N/A   Overcast
6:55 AM 55.6 °F 52.2 °F 88% 30.00 in 5.0 mi Calm Calm - N/A   Overcast
7:15 AM 56.1 °F 52.5 °F 88% 30.00 in 5.0 mi Calm Calm - N/A   Overcast
7:35 AM 56.7 °F 52.7 °F 87% 30.01 in 5.0 mi SSE 4.6 mph - N/A   Overcast
7:55 AM 57.2 °F 52.7 °F 85% 30.01 in 7.0 mi South 4.6 mph - N/A   Overcast
8:15 AM 58.3 °F 53.1 °F 83% 30.01 in 7.0 mi South 3.5 mph - N/A   Mostly Cloudy
8:35 AM 59.5 °F 53.1 °F 79% 30.01 in 10.0 mi South 6.9 mph - N/A   Clear
8:55 AM 61.0 °F 54.3 °F 79% 30.00 in 10.0 mi SSE 4.6 mph - N/A   Clear
9:15 AM 62.1 °F 54.7 °F 77% 30.00 in 10.0 mi South 5.8 mph - N/A   Clear
9:35 AM 63.3 °F 54.7 °F 73% 30.00 in 10.0 mi South 4.6 mph - N/A   Clear
9:55 AM 64.6 °F 54.0 °F 68% 30.00 in 10.0 mi SSW 6.9 mph - N/A   Clear
10:15 AM 64.0 °F 54.0 °F 70% 30.00 in 10.0 mi SW 6.9 mph - N/A   Scattered Clouds
10:35 AM 66.2 °F 53.6 °F 64% 30.00 in 10.0 mi SSE 8.1 mph - N/A   Mostly Cloudy
10:55 AM 66.7 °F 53.8 °F 63% 30.00 in 10.0 mi South 8.1 mph - N/A   Mostly Cloudy
11:15 AM 67.1 °F 54.5 °F 64% 30.00 in 10.0 mi South 6.9 mph - N/A   Scattered Clouds
11:35 AM 68.0 °F 55.0 °F 63% 29.99 in 10.0 mi SSE 9.2 mph - N/A   Scattered Clouds
11:55 AM 68.0 °F 54.0 °F 61% 29.98 in 10.0 mi SE 9.2 mph - N/A   Scattered Clouds
12:15 PM 68.7 °F 53.2 °F 58% 29.98 in 10.0 mi South 6.9 mph - N/A   Scattered Clouds
12:35 PM 68.9 °F 54.1 °F 59% 29.98 in 10.0 mi South 9.2 mph - N/A   Scattered Clouds
12:55 PM 69.3 °F 53.4 °F 57% 29.97 in 10.0 mi SE 11.5 mph - N/A   Scattered Clouds
1:15 PM 69.8 °F 52.9 °F 55% 29.96 in 10.0 mi South 9.2 mph 17.3 mph N/A   Scattered Clouds
1:35 PM 70.3 °F 53.6 °F 55% 29.96 in 10.0 mi South 9.2 mph - N/A   Scattered Clouds
1:55 PM 70.5 °F 53.1 °F 54% 29.96 in 10.0 mi SSE 11.5 mph - N/A   Scattered Clouds
2:15 PM 71.1 °F 54.3 °F 55% 29.95 in 10.0 mi SSE 9.2 mph 17.3 mph N/A   Clear
2:35 PM 71.6 °F 53.4 °F 53% 29.95 in 10.0 mi South 13.8 mph 19.6 mph N/A   Clear
2:55 PM 72.0 °F 54.0 °F 53% 29.94 in 10.0 mi SE 12.7 mph 18.4 mph N/A   Clear
3:15 PM 72.0 °F 54.0 °F 53% 29.93 in 10.0 mi SE 12.7 mph 18.4 mph N/A   Clear
3:35 PM 72.9 °F 54.7 °F 53% 29.93 in 10.0 mi SSE 13.8 mph 17.3 mph N/A   Clear
3:55 PM 72.3 °F 53.1 °F 51% 29.92 in 10.0 mi SE 11.5 mph - N/A   Clear
4:15 PM 72.9 °F 53.1 °F 50% 29.91 in 10.0 mi SSE 9.2 mph - N/A   Clear
4:35 PM 72.7 °F 52.0 °F 48% 29.91 in 10.0 mi South 12.7 mph - N/A   Clear
4:55 PM 73.0 °F 53.1 °F 49% 29.90 in 10.0 mi SSE 9.2 mph - N/A   Clear
5:15 PM 72.5 °F 51.3 °F 47% 29.91 in 10.0 mi South 11.5 mph - N/A   Clear
5:35 PM 72.5 °F 51.8 °F 48% 29.91 in 10.0 mi South 8.1 mph - N/A   Clear
5:55 PM 72.0 °F 51.6 °F 49% 29.90 in 10.0 mi South 10.4 mph - N/A   Clear
6:15 PM 71.6 °F 51.1 °F 48% 29.90 in 10.0 mi SSE 10.4 mph - N/A   Clear
6:35 PM 70.7 °F 51.3 °F 50% 29.90 in 10.0 mi SSE 10.4 mph - N/A   Clear
6:55 PM 69.3 °F 52.2 °F 54% 29.90 in 10.0 mi SSE 9.2 mph - N/A   Clear
7:15 PM 68.2 °F 52.3 °F 57% 29.89 in 10.0 mi SSE 6.9 mph - N/A   Clear
7:35 PM 65.8 °F 52.7 °F 62% 29.90 in 10.0 mi SSE 5.8 mph - N/A   Clear
7:55 PM 63.9 °F 52.5 °F 67% 29.90 in 10.0 mi SE 5.8 mph - N/A   Clear
8:15 PM 62.8 °F 51.4 °F 66% 29.90 in 10.0 mi SE 5.8 mph - N/A   Clear
8:35 PM 63.0 °F 50.9 °F 65% 29.90 in 10.0 mi SE 5.8 mph - N/A   Clear
8:55 PM 62.6 °F 51.3 °F 66% 29.91 in 10.0 mi SE 5.8 mph - N/A   Clear
9:15 PM 59.7 °F 51.1 °F 73% 29.92 in 10.0 mi SE 5.8 mph - N/A   Clear
9:35 PM 61.0 °F 51.8 °F 72% 29.91 in 10.0 mi SE 8.1 mph - N/A   Clear
9:55 PM 61.2 °F 51.6 °F 71% 29.91 in 10.0 mi SE 9.2 mph - N/A   Clear
10:35 PM 60.4 °F 51.1 °F 71% 29.90 in 10.0 mi SE 8.1 mph - N/A   Clear
10:55 PM 60.8 °F 50.9 °F 70% 29.91 in 10.0 mi SE 5.8 mph - N/A   Clear
11:15 PM 59.9 °F 50.7 °F 72% 29.91 in 10.0 mi SSE 5.8 mph - N/A   Clear
11:35 PM 60.1 °F 50.4 °F 70% 29.91 in 10.0 mi SE 6.9 mph - N/A   Clear
11:55 PM 59.2 °F 50.5 °F 73% 29.91 in 10.0 mi SE 8.1 mph - N/A   Clear